Alpine, TX

1:23 PM CST on February 22, 2018 (GMT -0600)
Alpine

Weather History for KE38 - September, 2012

Change the Weather History Date:

Saturday, September 8, 2012

  Actual Average (KMRF) Record (KMRF)
Temperature  
Mean Temperature 67 °F -  
Max Temperature 74 °F 81 °F 89 °F (1999)
Min Temperature 60 °F 54 °F 42 °F (2004)
Cooling Degree Days 2    
Growing Degree Days 17 (Base 50)    
Moisture  
Dew Point 46 °F    
Average Humidity 47    
Maximum Humidity 69    
Minimum Humidity 31    
Precipitation  
Precipitation 0.00 in - - ()
Sea Level Pressure  
Sea Level Pressure 30.33 in    
Wind  
Wind Speed 12 mph (North)    
Max Wind Speed 22 mph    
Max Gust Speed 29 mph    
Visibility 10 miles    
Events      
Averages and records for this station are not official NWS values.
T = Trace of Precipitation, MM = Missing Value Source: NWS Daily Summary

Daily Weather History Graph

Daily Weather History Graph

Search for Another Location

Airport or City:

Trip Planner

Search our weather history database for the weather conditions in past years. The results will help you decide how hot, cold, wet, or windy it might be!

Date:

Astronomy

Sep. 08, 2012 Rise Set
Actual Time 7:35 AM CDT 8:08 PM CDT
Civil Twilight 7:11 AM CDT 8:32 PM CDT
Nautical Twilight 6:42 AM CDT 9:00 PM CDT
Astronomical Twilight 6:14 AM CDT 9:29 PM CDT
Moon 12:37 AM CDT (9/8) 2:48 PM CDT (9/8)
Length of Visible Light 13h 21m
Length of Day
12h 32m
Waning Gibbous, 48% of the Moon is Illuminated
Sep 8
Waning Gibbous
Sep 15
New
Sep 22
First Quarter
Sep 29
Full
Oct 8
Last Quarter

Hourly Weather History & Observations

Time (CDT) Temp. Dew Point Humidity Pressure Visibility Wind Dir Wind Speed Gust Speed Precip Events Conditions
12:15 AM 74.5 °F 43.9 °F 33% 30.16 in 10.0 mi SW 3.5 mph - N/A   Clear
12:35 AM 74.1 °F 45.5 °F 36% 30.16 in 10.0 mi Calm Calm - N/A   Clear
12:55 AM 74.8 °F 48.4 °F 39% 30.16 in 10.0 mi Calm Calm - N/A   Clear
1:15 AM 74.8 °F 49.8 °F 41% 30.17 in 10.0 mi Calm Calm - N/A   Clear
1:35 AM 72.7 °F 50.4 °F 45% 30.18 in 10.0 mi WNW 11.5 mph - N/A   Clear
1:55 AM 71.8 °F 51.1 °F 48% 30.20 in 10.0 mi NNW 10.4 mph - N/A   Scattered Clouds
2:15 AM 72.9 °F 54.3 °F 52% 30.23 in 10.0 mi NNW 17.3 mph 25.3 mph N/A   Scattered Clouds
2:35 AM 72.9 °F 55.9 °F 55% 30.26 in 5.0 mi North 21.9 mph 27.6 mph N/A   Mostly Cloudy
2:55 AM 70.7 °F 54.1 °F 56% 30.27 in 5.0 mi North 17.3 mph 28.8 mph N/A   Overcast
3:15 AM 68.7 °F 52.7 °F 57% 30.28 in 7.0 mi North 11.5 mph 23.0 mph N/A   Overcast
3:35 AM 67.8 °F 52.2 °F 57% 30.29 in 7.0 mi North 12.7 mph - N/A   Overcast
3:55 AM 67.1 °F 52.3 °F 59% 30.30 in 5.0 mi North 18.4 mph 24.2 mph N/A   Overcast
4:15 AM 66.0 °F 52.0 °F 60% 30.30 in 5.0 mi North 16.1 mph 24.2 mph N/A   Overcast
4:35 AM 65.5 °F 51.8 °F 61% 30.31 in 7.0 mi North 18.4 mph 25.3 mph N/A   Overcast
4:55 AM 64.9 °F 51.3 °F 61% 30.31 in 7.0 mi North 16.1 mph 25.3 mph N/A   Overcast
5:15 AM 64.8 °F 51.1 °F 61% 30.31 in 7.0 mi North 18.4 mph 21.9 mph N/A   Overcast
5:35 AM 64.8 °F 50.9 °F 61% 30.31 in 10.0 mi North 17.3 mph 25.3 mph N/A   Overcast
5:55 AM 64.4 °F 50.5 °F 61% 30.32 in 10.0 mi NNW 15.0 mph - N/A   Overcast
6:15 AM 63.7 °F 50.4 °F 62% 30.32 in 10.0 mi North 17.3 mph - N/A   Overcast
6:35 AM 63.1 °F 49.5 °F 61% 30.33 in 10.0 mi North 15.0 mph 24.2 mph N/A   Mostly Cloudy
6:55 AM 61.9 °F 50.0 °F 65% 30.34 in 10.0 mi North 16.1 mph 23.0 mph N/A   Scattered Clouds
7:15 AM 61.3 °F 50.0 °F 66% 30.35 in 10.0 mi North 13.8 mph - N/A   Mostly Cloudy
7:35 AM 60.6 °F 49.6 °F 67% 30.35 in 10.0 mi North 13.8 mph - N/A   Scattered Clouds
7:55 AM 60.1 °F 50.0 °F 69% 30.37 in 10.0 mi North 12.7 mph 19.6 mph N/A   Clear
8:15 AM 60.3 °F 50.0 °F 69% 30.38 in 10.0 mi North 13.8 mph 20.7 mph N/A   Clear
8:35 AM 61.2 °F 50.0 °F 67% 30.39 in 10.0 mi North 13.8 mph 24.2 mph N/A   Scattered Clouds
8:55 AM 61.7 °F 50.2 °F 66% 30.39 in 10.0 mi North 18.4 mph 25.3 mph N/A   Overcast
9:15 AM 62.2 °F 50.2 °F 65% 30.39 in 10.0 mi North 18.4 mph 24.2 mph N/A   Overcast
9:35 AM 64.0 °F 50.0 °F 60% 30.40 in 10.0 mi North 17.3 mph 25.3 mph N/A   Scattered Clouds
9:55 AM 64.4 °F 50.0 °F 59% 30.40 in 10.0 mi North 21.9 mph 25.3 mph N/A   Scattered Clouds
10:15 AM 64.2 °F 49.3 °F 58% 30.40 in 10.0 mi North 18.4 mph 26.5 mph N/A   Scattered Clouds
10:35 AM 64.0 °F 49.1 °F 58% 30.41 in 10.0 mi North 16.1 mph 26.5 mph N/A   Mostly Cloudy
10:55 AM 63.9 °F 49.1 °F 59% 30.40 in 10.0 mi North 16.1 mph 23.0 mph N/A   Overcast
11:15 AM 64.6 °F 48.7 °F 56% 30.41 in 10.0 mi North 17.3 mph 24.2 mph N/A   Overcast
11:35 AM 66.0 °F 48.4 °F 53% 30.41 in 10.0 mi North 19.6 mph 24.2 mph N/A   Mostly Cloudy
11:55 AM 67.1 °F 47.1 °F 49% 30.41 in 10.0 mi NNE 16.1 mph 27.6 mph N/A   Scattered Clouds
12:15 PM 66.9 °F 44.8 °F 45% 30.41 in 10.0 mi NNE 19.6 mph 26.5 mph N/A   Scattered Clouds
12:35 PM 66.7 °F 43.9 °F 44% 30.41 in 10.0 mi North 20.7 mph 26.5 mph N/A   Scattered Clouds
12:55 PM 66.2 °F 42.4 °F 42% 30.41 in 10.0 mi North 17.3 mph 25.3 mph N/A   Mostly Cloudy
1:15 PM 67.3 °F 42.3 °F 40% 30.41 in 10.0 mi North 18.4 mph 27.6 mph N/A   Mostly Cloudy
1:35 PM 68.0 °F 42.4 °F 39% 30.40 in 10.0 mi North 16.1 mph 23.0 mph N/A   Scattered Clouds
1:55 PM 69.4 °F 44.6 °F 41% 30.39 in 10.0 mi North 12.7 mph 25.3 mph N/A   Clear
2:15 PM 70.0 °F 45.0 °F 41% 30.38 in 10.0 mi North 16.1 mph 27.6 mph N/A   Clear
2:35 PM 71.1 °F 45.0 °F 39% 30.37 in 10.0 mi NNE 16.1 mph 25.3 mph N/A   Clear
3:15 PM 72.0 °F 44.1 °F 37% 30.36 in 10.0 mi North 16.1 mph 21.9 mph N/A   Clear
3:35 PM 72.9 °F 43.5 °F 35% 30.35 in 10.0 mi North 16.1 mph 25.3 mph N/A   Clear
3:55 PM 73.0 °F 43.3 °F 34% 30.35 in 10.0 mi North 16.1 mph 25.3 mph N/A   Clear
4:15 PM 73.4 °F 42.8 °F 33% 30.33 in 10.0 mi North 12.7 mph 23.0 mph N/A   Clear
4:35 PM 73.8 °F 42.6 °F 33% 30.33 in 10.0 mi NNE 15.0 mph 23.0 mph N/A   Clear
4:55 PM 74.1 °F 42.4 °F 32% 30.32 in 10.0 mi North 15.0 mph 24.2 mph N/A   Clear
5:15 PM 74.5 °F 42.4 °F 32% 30.32 in 10.0 mi NNE 18.4 mph 24.2 mph N/A   Clear
5:35 PM 74.3 °F 42.1 °F 31% 30.32 in 10.0 mi NE 15.0 mph 21.9 mph N/A   Clear
5:55 PM 74.3 °F 41.5 °F 31% 30.31 in 10.0 mi NNE 15.0 mph 20.7 mph N/A   Clear
6:15 PM 73.8 °F 41.7 °F 32% 30.31 in 10.0 mi NNE 16.1 mph 24.2 mph N/A   Clear
6:35 PM 73.4 °F 41.9 °F 32% 30.31 in 10.0 mi North 16.1 mph 20.7 mph N/A   Clear
6:55 PM 72.9 °F 41.9 °F 33% 30.32 in 10.0 mi North 17.3 mph 21.9 mph N/A   Clear
7:15 PM 72.3 °F 41.0 °F 32% 30.32 in 10.0 mi NNE 13.8 mph 23.0 mph N/A   Clear
7:35 PM 71.6 °F 40.3 °F 32% 30.32 in 10.0 mi NNE 13.8 mph 20.7 mph N/A   Clear
7:55 PM 70.3 °F 40.3 °F 34% 30.32 in 10.0 mi NNE 11.5 mph 19.6 mph N/A   Clear
8:15 PM 69.4 °F 40.8 °F 35% 30.32 in 10.0 mi NNE 11.5 mph 16.1 mph N/A   Clear
8:35 PM 68.9 °F 40.8 °F 36% 30.33 in 10.0 mi North 11.5 mph 18.4 mph N/A   Clear
8:55 PM 68.2 °F 40.3 °F 36% 30.33 in 10.0 mi North 11.5 mph 16.1 mph N/A   Clear
9:15 PM 67.5 °F 39.6 °F 36% 30.34 in 10.0 mi North 9.2 mph - N/A   Clear
9:35 PM 66.9 °F 38.7 °F 35% 30.35 in 10.0 mi North 15.0 mph 21.9 mph N/A   Clear
10:15 PM 65.1 °F 37.4 °F 36% 30.37 in 10.0 mi North 10.4 mph - N/A   Clear
10:35 PM 64.2 °F 36.9 °F 36% 30.37 in 10.0 mi North 10.4 mph - N/A   Clear
10:55 PM 63.3 °F 36.5 °F 37% 30.38 in 10.0 mi North 9.2 mph 16.1 mph N/A   Clear
11:15 PM 62.2 °F 36.3 °F 38% 30.39 in 10.0 mi North 8.1 mph - N/A   Clear
11:55 PM 60.8 °F 35.6 °F 39% 30.39 in 10.0 mi North 5.8 mph - N/A   Clear